User: anonymous   Login
Location: Unspecified
(40.9833°N, 0.0000°E)
Time: 01:23:51
(UTC+00:00)
Language:

CUBESAT XI-V - Orbit

View from above orbital plane
View from above orbital plane
View from above satellite
View from above satellite

Ground track
Ground track

The orbit data is extracted from the following two-line orbital elements,

1 28895U 05043F   19287.15897683  .00000106  00000-0  29186-4 0  9995
2 28895  97.9765  65.9804 0016316 345.3842  14.6887 14.63698891744661
Epoch (UTC): 14 October 2019 03:48:55
Eccentricity: 0.0016316
inclination: 97.9765°
perigee height: 670 km
apogee height: 693 km
right ascension of ascending node: 65.9804°
argument of perigee: 345.3842°
revolutions per day: 14.63698891
mean anomaly at epoch: 14.6887°
orbit number at epoch: 74466

The dashed part of the orbit path shows where the satellite is in the earth's shadow,  

DLR